Regional Weather Roundup
Issued by NWS

Home | Current Version | Previous Version | Graphics & Text | Print | Product List | Glossary On
Versions: 1 2 3 4 5 6 7 8 9 10 11 12 13 14 15 16 17 18 19 20 21 22 23 24 25 26 27 28 29 30 31 32 33 34 35 36 37 38 39 40 41 42 43 44 45 46 47 48 49 50
000
ASUS44 KMEG 220100
RWRTN
TENNESSEE HOURLY STATE WEATHER ROUNDUP
NATIONAL WEATHER SERVICE MEMPHIS TN
700 PM CST TUE NOV 21 2017

TNZ002-004-019-021-049-052-054-088>092-220200-
WEST TENNESSEE

CITY           SKY/WX    TMP DP  RH WIND       PRES   REMARKS
MEMPHIS INTL   PTCLDY    53  39  59 CALM      30.06R
NWS MEMPHIS      N/A     48 N/A N/A MISG        N/A
JACKSON        PTCLDY    47  39  74 CALM      30.06R
DYERSBURG      CLEAR     51  40  65 NW3       30.07R
SELMER         CLEAR     45  37  76 CALM      30.05R
$$

TNZ008-025-027-028-033-062-065-066-220200-
NORTH MIDDLE TENNESSEE

CITY           SKY/WX    TMP DP  RH WIND       PRES   REMARKS
NASHVILLE      CLOUDY    48  30  49 CALM      30.06R
CLARKSVILLE    PTCLDY    50  32  50 W3        30.05R
SMYRNA         CLOUDY    44  35  70 CALM      30.07R
CROSSVILLE     CLOUDY    51  46  83 W3        30.04R
$$

TNZ061-075-076-078-094-096-097-220200-
SOUTH MIDDLE TENNESSEE

CITY           SKY/WX    TMP DP  RH WIND       PRES   REMARKS
WINCHESTER     CLEAR     43  37  81 CALM      30.05R
$$

TNZ017-018-042-046-047-220200-
NORTHEAST TENNESSEE

CITY           SKY/WX    TMP DP  RH WIND       PRES   REMARKS
TRI CITIES     MOCLDY    48  43  82 CALM      30.02R
$$

TNZ012-013-036-069-073-074-220200-
CENTRAL EAST TENNESSEE

CITY           SKY/WX    TMP DP  RH WIND       PRES   REMARKS
KNOXVILLE      CLOUDY    53  50  89 CALM      30.02R
OAK RIDGE      PTCLDY    51  47  86 CALM      30.03R
$$

TNZ083-085-099-220200-
SOUTHEAST TENNESSEE

CITY           SKY/WX    TMP DP  RH WIND       PRES   REMARKS
CHATTANOOGA    MOCLDY    53  49  86 CALM      30.03R
$$

SKY/WX REPORTED AS FAIR MEANS FEW OR NO CLOUDS BELOW
12 THOUSAND FEET.





USA.gov is the U.S. government's official web portal to all federal, state and local government web resources and services.